This demonstration page uses our WeatherBlox Daily Observations layout. Learn more.

Left ArrowRight Arrow

Hourly Observations for September 12, 2021

Temp ( °F °C ) Dew Point ( °F °C ) Humidity (%) Winds ( mph kmh ) Pressure ( in mb ) Visibility ( mi km ) Precip ( " mm )
12:15 am 00:15 Clear 72 22.2 66 19.1 83 83 E 6 9 29.79 1009 10 16 N/A
12:35 am 00:35 Clear 70 21.2 67 19.2 88 88 N 8 13 29.81 1009 10 16 N/A
12:55 am 00:55 Clear 70 21.1 66 18.9 87 87 ENE 3 6 29.80 1009 10 16 N/A
1:15 am 01:15 Clear 69 20.6 65 18.6 88 88 N N/A 29.81 1010 10 16 N/A
1:35 am 01:35 Clear 72 22.3 67 19.7 85 85 N 14 22 29.83 1010 10 16 N/A
1:55 am 01:55 Clear 72 22.3 68 20.1 87 87 N 14 22 29.84 1010 10 16 N/A
2:15 am 02:15 Clear 73 22.5 69 20.3 87 87 N 15 24 29.84 1010 10 16 N/A
2:35 am 02:35 Clear 73 22.5 69 20.4 88 88 N 16 26 29.84 1010 10 16 N/A
2:55 am 02:55 Clear 73 22.5 69 20.3 87 87 N 14 22 29.85 1011 10 16 N/A
3:15 am 03:15 Clear 73 22.7 69 20.3 86 86 NNE 16 26 29.86 1011 10 16 N/A
3:35 am 03:35 Clear 72 22.3 68 20.2 88 88 NNE 10 17 29.87 1011 10 16 N/A
3:55 am 03:55 Clear 72 22.2 68 20.1 88 88 NE 15 24 29.86 1011 10 16 N/A
4:15 am 04:15 Clear 72 22.2 68 20 87 87 NE 13 20 29.87 1011 10 16 N/A
4:35 am 04:35 Clear 72 22.1 67 19.7 86 86 NE 10 17 29.88 1012 10 16 N/A
4:55 am 04:55 Clear with Thunderstorms 71 21.8 67 19.4 86 86 NE 14 22 29.87 1012 10 16 N/A
5:15 am 05:15 Clear 71 21.6 67 19.3 87 87 NE 13 20 29.87 1012 10 16 N/A
5:35 am 05:35 Clear with Thunderstorms 71 21.5 67 19.5 88 88 E 13 20 29.88 1012 10 16 N/A
5:55 am 05:55 Clear with Nearby Thunderstorms 70 21 67 19.5 91 91 E 17 28 29.85 1011 10 16 N/A
6:15 am 06:15 Clear with Nearby Thunderstorms 69 20.7 67 19.2 91 91 E 17 28 29.83 1010 10 16 N/A
6:35 am 06:35 Clear 69 20.7 67 19.3 92 92 E 16 26 29.84 1011 10 16 N/A
6:55 am 06:55 Clear with Thunderstorms 70 21 67 19.4 91 91 E 14 22 29.85 1011 10 16 N/A
7:15 am 07:15 Clear 70 21.3 67 19.3 88 88 WSW 3 6 29.91 1013 10 16 N/A
7:35 am 07:35 Partly Cloudy with Light Rain 72 22.1 66 19 83 83 ESE 28 44 29.85 1011 10 16 N/A
7:55 am 07:55 Partly Cloudy with Nearby Thunderstorms 72 22.3 67 19.2 83 83 ESE 13 20 29.87 1011 10 16 N/A
8:15 am 08:15 Sunny with Nearby Thunderstorms 72 22.2 66 19.1 83 83 E 13 20 29.88 1012 10 16 N/A
8:35 am 08:35 Sunny with Thunderstorms 71 21.8 67 19.4 86 86 N N/A 29.89 1012 10 16 N/A
8:55 am 08:55 Partly Cloudy 71 21.5 67 19.4 88 88 NW 12 19 29.95 1014 10 16 N/A
9:15 am 09:15 Mostly Cloudy 71 21.4 67 19.3 88 88 NNW 8 13 29.97 1015 10 16 N/A
9:35 am 09:35 Cloudy with Nearby Thunderstorms 72 22.3 67 19.6 85 85 NNW 9 15 29.96 1014 10 16 N/A
9:55 am 09:55 Partly Cloudy 71 21.7 66 18.9 84 84 N 13 20 29.95 1014 10 16 N/A
10:15 am 10:15 Sunny 72 22.2 66 18.7 81 81 N 13 20 29.96 1015 10 16 N/A
10:35 am 10:35 Sunny 73 22.6 66 18.9 80 80 N 10 17 29.95 1014 10 16 N/A
10:55 am 10:55 Sunny 74 23.4 66 19.1 77 77 N 13 20 29.94 1014 10 16 N/A
11:15 am 11:15 Sunny 73 22.6 65 18.6 78 78 N 14 22 29.96 1014 10 16 N/A
11:35 am 11:35 Sunny 72 22.2 65 18.4 79 79 N 14 22 29.96 1015 10 16 N/A
11:55 am 11:55 Sunny 72 22.3 65 18.2 78 78 N 15 24 29.95 1014 10 16 N/A
12:15 pm 12:15 Sunny 74 23.1 66 18.7 76 76 N 16 26 29.93 1014 10 16 N/A
12:35 pm 12:35 Sunny 75 24 66 19 74 74 N 12 19 29.92 1013 10 16 N/A
12:55 pm 12:55 Sunny 77 25.1 67 19.4 71 71 NNE 14 22 29.92 1013 10 16 N/A
1:15 pm 13:15 Sunny 77 24.9 66 19.1 70 70 NNE 10 17 29.92 1013 10 16 N/A
1:35 pm 13:35 Sunny 78 25.8 67 19.2 67 67 NNE 13 20 29.91 1013 10 16 N/A
1:55 pm 13:55 Sunny 79 26.1 66 19.1 65 65 NNE 13 20 29.90 1012 10 16 N/A
2:15 pm 14:15 Sunny 79 26.2 66 19.1 65 65 N 13 20 29.89 1012 10 16 N/A
2:35 pm 14:35 Sunny 79 25.9 67 19.4 67 67 NE 13 20 29.89 1012 10 16 N/A
2:55 pm 14:55 Sunny 80 26.5 66 19 63 63 NNE 10 17 29.88 1012 10 16 N/A
3:15 pm 15:15 Sunny 80 26.8 66 19.1 63 63 ENE 9 15 29.88 1012 10 16 N/A
3:35 pm 15:35 Sunny 81 27.1 66 19.1 62 62 ENE 10 17 29.88 1012 10 16 N/A
3:55 pm 15:55 Partly Cloudy 81 27.1 66 18.9 61 61 E 7 11 29.88 1012 10 16 N/A
4:15 pm 16:15 Partly Cloudy 81 27.4 66 18.9 60 60 ENE 10 17 29.88 1012 10 16 N/A
4:35 pm 16:35 Mostly Cloudy 80 26.7 66 19 63 63 E 13 20 29.87 1012 10 16 N/A
4:55 pm 16:55 Partly Cloudy 80 26.8 66 18.8 62 62 ENE 8 13 29.87 1012 10 16 N/A
5:15 pm 17:15 Partly Cloudy 80 26.4 66 19.1 64 64 ESE 9 15 29.88 1012 10 16 N/A
5:35 pm 17:35 Sunny 79 26 66 18.8 65 65 ESE 12 19 29.88 1012 10 16 N/A
5:55 pm 17:55 Sunny 78 25.8 65 18.6 65 65 E 9 15 29.89 1012 10 16 N/A
6:15 pm 18:15 Partly Cloudy 78 25.5 64 17.9 63 63 E 10 17 29.89 1012 10 16 N/A
6:35 pm 18:35 Sunny 77 25.1 63 17.4 62 62 ENE 9 15 29.90 1012 10 16 N/A
6:55 pm 18:55 Sunny 76 24.5 64 17.5 65 65 ENE 6 9 29.90 1013 10 16 N/A
7:15 pm 19:15 Sunny 75 23.7 64 17.9 70 70 ENE 6 9 29.91 1013 10 16 N/A
7:35 pm 19:35 Sunny 73 22.7 64 18 75 75 ENE 7 11 29.92 1013 10 16 N/A
7:55 pm 19:55 Clear 71 21.5 65 18.1 81 81 NE 7 11 29.92 1013 10 16 N/A
8:15 pm 20:15 Clear 70 21 64 18 83 83 ENE 6 9 29.94 1014 10 16 N/A
8:35 pm 20:35 Clear 69 20.6 65 18.1 86 86 ENE 7 11 29.95 1014 10 16 N/A
8:55 pm 20:55 Clear 69 20.3 65 18.1 87 87 E 9 15 29.95 1014 10 16 N/A
9:15 pm 21:15 Clear 69 20.3 65 18.1 87 87 E 8 13 29.95 1014 10 16 N/A
9:35 pm 21:35 Clear 68 20.2 65 18.1 88 88 ENE 8 13 29.96 1014 10 16 N/A
9:55 pm 21:55 Clear 68 19.8 65 18.2 91 91 ENE 6 9 29.96 1015 10 16 N/A
10:15 pm 22:15 Clear 67 19.3 64 18 92 92 NE 6 9 29.96 1015 10 16 N/A
10:35 pm 22:35 Clear 66 19 64 18 94 94 NE 6 9 29.98 1015 10 16 N/A
10:55 pm 22:55 Clear 66 19 65 18.1 95 95 NE 6 9 29.98 1015 10 16 N/A
11:15 pm 23:15 Clear 66 19 65 18.1 95 95 ENE 7 11 29.98 1015 10 16 N/A
11:35 pm 23:35 Clear 66 19.1 64 18 93 93 ENE 6 9 29.96 1015 10 16 N/A

Powered by AerisWeather